This is the latest recevied weather packets stored in our database for station/object KI6AOK. If no packets are shown the sender has not sent any weather packets the latest 10 day(s).
| Time | Temp. | Humidity | Pressure | Rain* | Wind** | Luminosity | Snow |
|---|---|---|---|---|---|---|---|
| 1777906496 | 14.44° C | 76% | 1015.4 hPa | 0 mm | - | 106 W/m² | - |
| 1777906192 | 14.44° C | 77% | 1015.4 hPa | 0 mm | - | 124 W/m² | - |
| 1777905889 | 13.89° C | 78% | 1015.3 hPa | 0 mm | - | 71 W/m² | - |
| 1777905585 | 13.89° C | 79% | 1015.3 hPa | 0 mm | - | 77 W/m² | - |
| 1777905282 | 13.89° C | 79% | 1015.3 hPa | 0 mm | - | 66 W/m² | - |
| 1777904980 | 13.89° C | 81% | 1015.2 hPa | 0 mm | - | 87 W/m² | - |
| 1777904677 | 13.89° C | 81% | 1015.2 hPa | 0 mm | - | 85 W/m² | - |
| 1777904374 | 13.89° C | 82% | 1015.3 hPa | 0 mm | - | 55 W/m² | - |
| 1777904071 | 13.89° C | 82% | 1015.4 hPa | 0 mm | - | 42 W/m² | - |
| 1777903767 | 13.89° C | 83% | 1015.2 hPa | 0 mm | - | 46 W/m² | - |
| 1777903464 | 13.89° C | 82% | 1015.3 hPa | 0 mm | - | 31 W/m² | - |
| 1777903161 | 13.33° C | 82% | 1015.2 hPa | 0 mm | - | 22 W/m² | - |
| 1777902857 | 13.33° C | 82% | 1015.2 hPa | 0 mm | - | 18 W/m² | - |
| 1777902554 | 13.33° C | 82% | 1015.2 hPa | 0 mm | - | 20 W/m² | - |
| 1777902251 | 12.78° C | 83% | 1015.1 hPa | 0 mm | - | 17 W/m² | - |
| 1777901949 | 12.78° C | 85% | 1015.1 hPa | 0 mm | - | 18 W/m² | - |
| 1777901646 | 12.78° C | 86% | 1015.1 hPa | 0 mm | - | 15 W/m² | - |
| 1777901343 | 12.78° C | 87% | 1015 hPa | 0 mm | - | 18 W/m² | - |
| 1777901041 | 12.22° C | 87% | 1015 hPa | 0 mm | - | 12 W/m² | - |
| 1777900738 | 12.22° C | 87% | 1014.9 hPa | 0 mm | - | 11 W/m² | - |
| 1777900435 | 12.22° C | 86% | 1015.2 hPa | 0 mm | - | 8 W/m² | - |
| 1777900132 | 12.22° C | 86% | 1015 hPa | 0 mm | - | 5 W/m² | - |
| 1777899829 | 12.22° C | 86% | 1014.8 hPa | 0 mm | - | 4 W/m² | - |
| 1777899525 | 12.22° C | 85% | 1015 hPa | 0 mm | - | 2 W/m² | - |
| 1777899223 | 12.78° C | 84% | 1014.8 hPa | 0 mm | - | 1 W/m² | - |
* Rain latest hour (hover to see other rain measurements)
** Current wind speed in m/s (hover to see current wind gust speed)